Showing default

GSAT 15, 41028

Orbit data source: Space-Track

GSAT 15, 41028 is a payload satellite owned by ISRO (IN) in GEO that was launched on Tue, 10 Nov 2015 UTC via an ARIANE 5ECA launch vehicle from the French Guiana (FRGUI). Payload-class satellites include a variety of spacecraft equipped with specific instruments for various scientific and technological missions. These include communications satellites like Starlink; space stations such as the ISS; scientific satellites like the Hubble; Earth observation satellites from companies like Planet Labs, Umbra, and HawkEye 360; GPS; miniature CubeSats for education and research; and military/defense satellites.

Not visible in the next 10 days
Identifier
41028, 2015-065A
Orbit
GEO
Country
Flag of ININ / IND
Related business
Manufacturer
ISRO SAC/Banga
Mission
Operational Civil Communications
Bus & Motor
I3K, ISRO LAM
Mass
3,165 kg wet, ~1,200 kg dry
Launch date (UTC)
2015-11-10 (10 years ago)
Launch vehicle
ARIANE 5ECA
Launch site
French Guiana (FRGUI)
Object type
Payload
Rocket body
Debris
Shape & HBR
Box + 2 Pan, 7.8 m
Radar Cross Section
15.451 m², Large (>1 m²)

Expand to show TLE details & history
Last TLE update: 9 hours ago

TLE from 9 hours ago
0 GSAT 15
1 41028U 15065A   25306.48274646 -.00000246  00000-0  00000+0 0  9991
2 41028   0.0749  88.8213 0002747 120.3150 100.1960  1.00271489 36524
Epoch: 2025-11-02T11:35Z
TLE epoch observation values (Epoch: 2025-11-02T11:35:09.294Z)
Latitude
-0.02231°
Longitude
93.53777°
Altitude
35,788.211 km
Speed
3.075 km/s
True Right ascension
20h 37m 17s
True Declination
0° 01' 20"
Sunlit
Object was in daylight at epoch
Visualization orbit readout
Latitude
Unknown
Longitude
Unknown
Altitude
Unknown
Speed
Unknown
Apparent Right ascension
Unknown
Apparent Declination
Unknown
Sunlit
N/A
Visualization observer readout
Local Sidereal Time
16:48:10
Azimuth
Unknown
Elevation
Unknown
Doppler factor
Unknown
Orbital elements
Apogee altitude
35,799.331 km
Perigee altitude
35,776.165 km
Semi-major axis
42,165.885 km
Eccentricity
0.00027
Inclination
0.0749°
RAAN
88.8213°
Arg. of periapsis
120.315°
True anomaly
100.22698°
Mean anomaly
100.196°
Eccentric anomaly
100.21149°
Mean motion
0.25067 °/min
Orbital period
1,436.15 mins
BSTAR
0
Loading maneuver chart data...
Computing Atmospheric mass density...
Loading historical data...
Loading historical data...
Loading historical data...
Loading historical data...
Loading historical data...
Loading historical data...
Loading historical data...
Other satellites on launch #65 in the year 2015 (2015-11-10 UTC)

Documentation

Showing up to 5 results
|